[[{"header":{"parameterUnit":"m.s-1","parameterCategory":1,"la1":30.2991,"la2":30.254,"lo1":-89.0895,"lo2":-89.0444,"dy":0.0017,"dx":0.0017,"nx":28,"ny":28,"refTime":"2023-09-26T21:00:00:Z","depth":0,"parameterNumber":2,"parameterNumberName":"U-component_of_WINDS"},"data":[0,0,0,0,0,0,0,0,0,0,0,0,0,0,0,0,0,0,0,0,0,0,0,0,0,0,0,0,0,0,0,0,0,0,0,0,0,0,0,0,0,0,0,0,0,0,0,0,0,0,0,0,0,0,0,0,0,0,-4.0658,-4.0659,0,-4.0731,-4.0732,-4.0733,-4.0692,-4.069,-4.0688,-4.0686,-4.076,-4.0764,-4.0767,0,0,0,0,0,0,0,0,0,0,0,0,0,-4.0481,-4.0484,-4.0658,-4.0659,-4.066,-4.0731,-4.0732,-4.0733,-4.0692,-4.069,-4.0687,-4.0685,-4.0759,-4.0763,-4.0768,0,0,0,0,0,0,0,0,0,0,0,0,0,-4.0556,-4.0485,-4.0658,-4.0648,-4.0648,-4.0731,-4.0732,-4.0733,-4.0693,-4.069,-4.0687,-4.0684,-4.0757,-4.0763,-4.0768,-4.0865,0,0,-4.0786,-4.0789,0,0,0,0,0,0,0,0,-4.0552,-4.0563,-4.0648,-4.0649,-4.0649,-4.0699,-4.0697,-4.0777,-4.0694,-4.0676,-4.0686,-4.0682,-4.0742,-4.0749,-4.0769,-4.0868,-4.0871,-4.0787,-4.079,-4.0793,-4.0794,0,0,0,0,0,0,0,-4.0547,-4.0559,-4.0687,-4.065,-4.065,-4.0639,-4.0647,-4.0712,-4.0725,-4.0677,-4.0674,-4.0684,-4.0742,-4.0764,-4.0771,-4.0872,-4.0786,-4.0792,-4.0795,-4.0797,-4.1055,-4.1058,0,0,0,0,0,0,-4.0542,-4.0555,-4.0684,-4.0689,-4.0592,-4.0645,-4.0653,-4.0686,-4.0724,-4.0727,-4.0686,-4.0681,-4.0755,-4.0764,-4.0773,-4.0889,-4.0793,-4.0798,-4.0801,-4.1051,-4.1055,-4.1059,0,0,0,0,0,0,-4.0539,-4.0554,-4.0681,-4.0621,-4.0637,-4.0651,-4.0689,-4.0689,-4.0711,-4.0731,-4.0733,-4.0707,-4.0753,-4.0765,-4.0843,-4.0891,-4.0801,-4.0806,-4.1047,-4.1052,-4.1057,-4.1121,0,0,0,0,0,0,-4.0534,-4.0553,-4.059,-4.0623,-4.064,-4.075,-4.0692,-4.0693,-4.0722,-4.0716,-4.0751,-4.0754,-4.0752,-4.0834,-4.0848,-4.0897,-4.081,-4.1043,-4.105,-4.1055,-4.1115,-4.1128,-4.1139,0,0,0,0,0,-4.0528,-4.0605,-4.0593,-4.0608,-4.0687,-4.0753,-4.0763,-4.076,-4.0726,-4.0763,-4.0776,-4.0752,-4.0883,-4.0842,-4.0858,-4.091,-4.104,-4.1048,-4.1055,-4.111,-4.1125,-4.1139,0,0,0,0,0,0,-4.0578,-4.0609,-4.0596,-4.0686,-4.0717,-4.0746,-4.0793,-4.0777,-4.0818,-4.0811,-4.0805,-4.0813,-4.0894,-4.0909,-4.0863,-4.1005,-4.0956,-4.0967,-4.0992,-4.1008,-4.1019,-4.1014,-4.0815,0,0,0,0,0,-4.0599,-4.0651,-4.0675,-4.0752,-4.0769,-4.0778,-4.0807,-4.0802,-4.0834,-4.0847,-4.0865,-4.0897,-4.0945,-4.0977,-4.1022,-4.1117,-4.1124,-4.116,-4.1172,-4.1182,-4.1192,-4.1243,-4.126,-4.1084,-4.1084,-4.1084,0,0,-4.0644,-4.0668,-4.0701,-4.0763,-4.0787,-4.084,-4.079,-4.0848,-4.0887,-4.0856,-4.093,-4.0945,-4.098,-4.1066,-4.1105,-4.1081,-4.1242,-4.1191,-4.1199,-4.1204,-4.1253,-4.1269,-4.1284,-4.1089,-4.1088,-4.1087,0,0,-4.0754,-4.0777,-4.0844,-4.0869,-4.0906,-4.0911,-4.0928,-4.0959,-4.0968,-4.1043,-4.102,-4.1066,-4.1149,-4.1175,-4.1199,-4.1319,-4.13,-4.1334,-4.1397,-4.1448,-4.1461,-4.1474,-4.1517,-4.1533,-4.1343,-4.1344,-4.1344,0,-4.0805,-4.0885,-4.088,-4.0941,-4.0969,-4.0943,-4.1011,-4.1035,-4.1085,-4.1105,-4.1077,-4.1181,-4.1203,-4.1295,-4.1325,-4.1345,-4.1363,-4.133,-4.146,-4.1472,-4.1483,-4.1525,-4.1541,-4.1348,-4.1347,-4.1347,-4.1346,0,-4.0947,-4.1002,-4.1052,-4.1101,-4.1135,-4.1199,-4.1204,-4.1238,-4.123,-4.1239,-4.1315,-4.134,-4.1391,-4.1412,-4.1404,-4.1504,-4.1488,-4.146,-4.1411,-4.1504,-4.1543,-4.1559,-4.1353,-4.1352,-4.1351,-4.135,0,0,-4.109,-4.1136,-4.1155,-4.1177,-4.1216,-4.1259,-4.1321,-4.1371,-4.1401,-4.1435,-4.1488,-4.1559,-4.1534,-4.1561,-4.1556,-4.16,-4.1694,-4.1567,-4.1568,-4.1591,-4.1806,-4.1827,-4.1846,-4.1681,-4.1684,-4.1687,-4.1803,0,-4.1203,-4.1313,-4.1311,-4.1413,-4.1465,-4.1441,-4.1495,-4.1524,-4.1534,-4.1579,-4.1589,-4.164,-4.1602,-4.1619,-4.1661,-4.1674,-4.1738,-4.1665,-4.173,-4.1733,-4.1723,-4.1866,-4.1888,-4.1997,-4.1818,-4.1821,-4.1823,0,-4.1349,-4.139,-4.1498,-4.1529,-4.1551,-4.16,-4.1645,-4.1688,-4.1721,-4.1725,-4.1756,-4.1744,-4.1807,-4.1756,-4.1843,-4.1794,-4.182,-4.1831,-4.1835,-4.1841,-4.1784,-4.1877,-4.2032,-4.2049,-4.1847,-4.1845,-4.1843,0,-4.1445,-4.1526,-4.1601,-4.1621,-4.1659,-4.1694,-4.1712,-4.1742,-4.1772,-4.1811,-4.1831,-4.1877,-4.1902,-4.1938,-4.1939,-4.1902,-4.2028,-4.1976,-4.2033,-4.2033,-4.2061,-4.206,-4.2223,-4.2077,-4.2076,-4.2076,-4.2076,0,-4.1571,-4.1638,-4.1645,-4.1691,-4.1765,-4.1761,-4.1835,-4.1849,-4.1876,-4.1924,-4.1905,-4.1951,-4.1949,-4.1995,-4.1996,-4.2069,-4.208,-4.2085,-4.2085,-4.2087,-4.2087,-4.2105,-4.2098,-4.2081,-4.208,-4.2079,-4.2078,0,-4.1691,-4.1697,-4.1778,-4.1808,-4.1817,-4.187,-4.1895,-4.1939,-4.1947,-4.2009,-4.2023,-4.2035,-4.2089,-4.2093,-4.2155,-4.2155,-4.2243,-4.2234,-4.2233,-4.2231,-4.2288,-4.2283,-4.247,-4.2495,-4.2331,-4.2333,-4.2334,0,-4.1772,-4.1823,-4.1858,-4.189,-4.1909,-4.196,-4.1991,-4.1989,-4.2022,-4.2063,-4.2102,-4.2154,-4.2195,-4.2282,-4.2296,-4.2343,-4.2336,-4.2398,-4.2343,-4.2344,-4.2338,-4.2335,-4.2341,-4.2409,-4.2411,-4.2412,-4.2414,0,-4.1915,-4.1916,-4.1961,-4.2008,-4.2046,-4.2083,-4.2117,-4.2143,-4.2145,-4.2183,-4.2238,-4.227,-4.2334,-4.2386,-4.2432,-4.2449,-4.2432,-4.2431,-4.2447,-4.245,-4.2448,-4.2451,-4.2263,-4.2427,-4.2425,-4.2424,-4.2424,-4.2423,-4.2018,-4.2063,-4.2095,-4.2146,-4.2172,-4.2204,-4.2247,-4.2261,-4.2306,-4.2358,-4.2354,-4.2415,-4.2446,-4.2507,-4.2528,-4.2575,-4.2554,-4.2577,-4.2583,-4.2589,-4.2595,-4.2439,-4.2584,-4.2583,-4.2583,-4.2583,-4.2582,0,-4.2161,-4.2181,-4.2228,-4.2277,-4.2317,-4.2298,-4.2334,-4.237,-4.2424,-4.2454,-4.2496,-4.2559,-4.2609,-4.2627,-4.2676,-4.2711,-4.2704,-4.2724,-4.2722,-4.2726,-4.2611,-4.2593,-4.2728,-4.2728,-4.2728,-4.2728,-4.2728,-4.2728,-4.2241,-4.2315,-4.232,-4.2407,-4.2425,-4.2486,-4.2508,-4.2538,-4.2563,-4.2634,-4.2676,-4.2688,-4.2714,-4.2764,-4.281,-4.2814,-4.2833,-4.2856,-4.2857,-4.2749,-4.2734,-4.272,-4.2703,-4.286,-4.286,-4.2968,-4.2969,-4.297]},{"header":{"parameterUnit":"m.s-1","parameterCategory":1,"la1":30.2991,"la2":30.254,"lo1":-89.0895,"lo2":-89.0444,"dy":0.0017,"dx":0.0017,"nx":28,"ny":28,"refTime":"2023-09-26T21:00:00:Z","depth":0,"parameterNumber":3,"parameterNumberName":"V-component_of_WINDS"},"data":[0,0,0,0,0,0,0,0,0,0,0,0,0,0,0,0,0,0,0,0,0,0,0,0,0,0,0,0,0,0,0,0,0,0,0,0,0,0,0,0,0,0,0,0,0,0,0,0,0,0,0,0,0,0,0,0,0,0,-3.6888,-3.6888,0,-3.6892,-3.6892,-3.6892,-3.6836,-3.6834,-3.6833,-3.6832,-3.6835,-3.6836,-3.6838,0,0,0,0,0,0,0,0,0,0,0,0,0,-3.6832,-3.6834,-3.6888,-3.6888,-3.6888,-3.6892,-3.6892,-3.6892,-3.6836,-3.6834,-3.6833,-3.6831,-3.6834,-3.6836,-3.6838,0,0,0,0,0,0,0,0,0,0,0,0,0,-3.6848,-3.6834,-3.6888,-3.6861,-3.6859,-3.6892,-3.6892,-3.6892,-3.6837,-3.6834,-3.6832,-3.683,-3.6834,-3.6836,-3.6838,-3.6897,0,0,-3.6845,-3.6846,0,0,0,0,0,0,0,0,-3.6847,-3.685,-3.6865,-3.6863,-3.686,-3.6861,-3.6873,-3.6894,-3.6837,-3.6845,-3.6831,-3.6829,-3.6845,-3.6847,-3.6852,-3.6898,-3.6898,-3.6845,-3.6847,-3.6848,-3.6848,0,0,0,0,0,0,0,-3.6846,-3.685,-3.689,-3.6865,-3.6862,-3.6848,-3.6848,-3.6877,-3.6858,-3.6844,-3.684,-3.6841,-3.6844,-3.685,-3.6852,-3.6898,-3.6845,-3.6847,-3.6849,-3.6849,-3.6991,-3.6994,0,0,0,0,0,0,-3.6849,-3.6849,-3.6889,-3.689,-3.6848,-3.6851,-3.6851,-3.6863,-3.6857,-3.6854,-3.6843,-3.6839,-3.6847,-3.6849,-3.6852,-3.692,-3.6848,-3.685,-3.6851,-3.6989,-3.6992,-3.6994,0,0,0,0,0,0,-3.6848,-3.6853,-3.6889,-3.6868,-3.6872,-3.6855,-3.6869,-3.6864,-3.6871,-3.6857,-3.6853,-3.6853,-3.6846,-3.6849,-3.6886,-3.692,-3.6851,-3.6853,-3.6986,-3.699,-3.6993,-3.7059,0,0,0,0,0,0,-3.6847,-3.6853,-3.6876,-3.6869,-3.6873,-3.6925,-3.6871,-3.6866,-3.6875,-3.6869,-3.6865,-3.6862,-3.6844,-3.6883,-3.6889,-3.6922,-3.6854,-3.6983,-3.6988,-3.6992,-3.7054,-3.7064,-3.7073,0,0,0,0,0,-3.6845,-3.6894,-3.6877,-3.6883,-3.6901,-3.6927,-3.6929,-3.6907,-3.6878,-3.69,-3.6891,-3.6863,-3.6915,-3.6888,-3.6893,-3.6927,-3.6981,-3.6986,-3.6992,-3.7049,-3.7062,-3.7073,0,0,0,0,0,0,-3.6905,-3.6893,-3.6874,-3.6923,-3.6926,-3.6917,-3.6945,-3.6921,-3.6933,-3.6927,-3.6899,-3.6898,-3.6941,-3.6938,-3.6907,-3.6984,-3.6943,-3.695,-3.6985,-3.6997,-3.7007,-3.7007,-3.6856,0,0,0,0,0,-3.6924,-3.6946,-3.6934,-3.6978,-3.6981,-3.6963,-3.6973,-3.6955,-3.6958,-3.6959,-3.6952,-3.6956,-3.6972,-3.6984,-3.6999,-3.7053,-3.7051,-3.7079,-3.7089,-3.7097,-3.7103,-3.7131,-3.7143,-3.7012,-3.7012,-3.7012,0,0,-3.6964,-3.696,-3.6975,-3.699,-3.6991,-3.7013,-3.6964,-3.6991,-3.7007,-3.6963,-3.6998,-3.6993,-3.6995,-3.7041,-3.706,-3.7039,-3.7139,-3.7104,-3.7111,-3.7112,-3.7138,-3.715,-3.7161,-3.7016,-3.7015,-3.7015,0,0,-3.7047,-3.7047,-3.7083,-3.7085,-3.7086,-3.7073,-3.7082,-3.7077,-3.7072,-3.7107,-3.7074,-3.7093,-3.7123,-3.7125,-3.7131,-3.7214,-3.7188,-3.722,-3.7272,-3.7299,-3.7309,-3.7318,-3.7348,-3.7359,-3.7226,-3.7226,-3.7226,0,-3.7096,-3.713,-3.7105,-3.7133,-3.7141,-3.7101,-3.7138,-3.714,-3.7147,-3.7153,-3.7129,-3.7165,-3.7164,-3.7209,-3.723,-3.7235,-3.7244,-3.722,-3.731,-3.7318,-3.7326,-3.7355,-3.7366,-3.723,-3.723,-3.7229,-3.7229,0,-3.719,-3.7213,-3.7242,-3.7249,-3.726,-3.7292,-3.7272,-3.7286,-3.7267,-3.7257,-3.7293,-3.7289,-3.7303,-3.7312,-3.7294,-3.7355,-3.7342,-3.7315,-3.7273,-3.7343,-3.7369,-3.738,-3.7236,-3.7234,-3.7233,-3.7232,0,0,-3.7312,-3.7305,-3.7316,-3.7318,-3.7316,-3.7334,-3.7364,-3.7377,-3.7389,-3.7395,-3.7419,-3.7445,-3.742,-3.7425,-3.7408,-3.7431,-3.7498,-3.7401,-3.74,-3.7419,-3.7564,-3.7585,-3.7598,-3.748,-3.7482,-3.7484,-3.7564,0,-3.7394,-3.7445,-3.7423,-3.7477,-3.7498,-3.746,-3.7487,-3.7488,-3.7479,-3.7496,-3.7486,-3.7505,-3.7469,-3.7473,-3.7495,-3.7485,-3.7527,-3.7479,-3.7503,-3.7504,-3.7504,-3.7612,-3.7634,-3.771,-3.7574,-3.7576,-3.7577,0,-3.7496,-3.7505,-3.7561,-3.7555,-3.7563,-3.7587,-3.7597,-3.7613,-3.7613,-3.7605,-3.7612,-3.7588,-3.7617,-3.7575,-3.7614,-3.7582,-3.7591,-3.7588,-3.759,-3.7592,-3.7545,-3.7616,-3.7734,-3.7745,-3.7593,-3.7591,-3.759,0,-3.758,-3.7606,-3.7643,-3.7646,-3.764,-3.7657,-3.7655,-3.7654,-3.7663,-3.7671,-3.7677,-3.7689,-3.7695,-3.7705,-3.7685,-3.7656,-3.7727,-3.7684,-3.7721,-3.7722,-3.7738,-3.7738,-3.7859,-3.7743,-3.7743,-3.7743,-3.7743,0,-3.7673,-3.7708,-3.768,-3.7703,-3.7741,-3.7715,-3.7754,-3.7748,-3.7747,-3.7767,-3.7736,-3.7755,-3.7728,-3.7745,-3.773,-3.7765,-3.7768,-3.7762,-3.7757,-3.7765,-3.7766,-3.777,-3.7765,-3.7746,-3.7745,-3.7745,-3.7744,0,-3.7773,-3.7756,-3.7793,-3.7784,-3.7782,-3.7811,-3.7803,-3.7823,-3.7812,-3.7838,-3.7843,-3.7825,-3.7844,-3.7825,-3.7842,-3.7831,-3.7878,-3.7866,-3.7878,-3.7875,-3.7914,-3.791,-3.8042,-3.8058,-3.7933,-3.7934,-3.7935,0,-3.7834,-3.7861,-3.7854,-3.7865,-3.7866,-3.7884,-3.7893,-3.7869,-3.7879,-3.7882,-3.7902,-3.7917,-3.7929,-3.796,-3.7948,-3.7961,-3.7949,-3.7994,-3.7951,-3.7958,-3.795,-3.7949,-3.7951,-3.8004,-3.8005,-3.8006,-3.8007,0,-3.7944,-3.7934,-3.7948,-3.7959,-3.7971,-3.7978,-3.7984,-3.7995,-3.7969,-3.7982,-3.8001,-3.801,-3.8027,-3.8043,-3.8052,-3.805,-3.8025,-3.8021,-3.803,-3.8039,-3.8045,-3.8042,-3.7903,-3.8018,-3.8017,-3.8016,-3.8016,-3.8015,-3.8027,-3.8048,-3.8047,-3.8064,-3.8065,-3.807,-3.8089,-3.8079,-3.8094,-3.8106,-3.8091,-3.8113,-3.8113,-3.8123,-3.8123,-3.8141,-3.8121,-3.8135,-3.8139,-3.8143,-3.8148,-3.8042,-3.8142,-3.8142,-3.8142,-3.8141,-3.8141,0,-3.8135,-3.8132,-3.8148,-3.8156,-3.8169,-3.8143,-3.8147,-3.816,-3.818,-3.8182,-3.8193,-3.8214,-3.8229,-3.8219,-3.8232,-3.8248,-3.8236,-3.8252,-3.8251,-3.8251,-3.8165,-3.8155,-3.8261,-3.8261,-3.8261,-3.8261,-3.8261,-3.8261,-3.8193,-3.8228,-3.8218,-3.8253,-3.8249,-3.8271,-3.8276,-3.828,-3.8281,-3.8306,-3.8319,-3.8312,-3.8308,-3.832,-3.8333,-3.8329,-3.8336,-3.8356,-3.8348,-3.8268,-3.8257,-3.8245,-3.8236,-3.8357,-3.8357,-3.8432,-3.8433,-3.8434]}]]